Regional Weather Roundup
Issued by NWS

Home | Current Version | Previous Version | Graphics & Text | Print | Product List | Glossary On
Versions: 1 2 3 4 5 6 7 8 9 10 11 12 13 14 15 16 17 18 19 20 21 22 23 24 25 26 27 28 29 30 31 32 33 34 35 36 37 38 39 40 41 42 43 44 45 46 47 48 49 50
000
ASUS45 KBOI 270410
RWRID
WEATHER ROUNDUP FOR IDAHO
NATIONAL WEATHER SERVICE BOISE ID
1000 PM MDT THU MAR 26 2015

NOTE: "FAIR" INDICATES FEW OR NO CLOUDS BELOW 12000 FEET
WITH NO SIGNIFICANT WEATHER AND/OR OBSTRUCTIONS TO VISIBILITY

IDZ012-014-270500-
SOUTHWEST IDAHO


CITY           SKY/WX    TMP DP  RH WIND       PRES   REMARKS
BOISE          CLEAR     54  39  57 CALM      30.26R
CALDWELL       CLEAR     55  37  50 CALM      30.27R
MOUNTAIN HOME  CLEAR     50  39  66 NW5       30.26R
$$

IDZ016-017-270500-
SOUTHCENTRAL IDAHO


CITY           SKY/WX    TMP DP  RH WIND       PRES   REMARKS
BURLEY         CLEAR     46  35  65 SW5       30.29S
JEROME         CLEAR     51  36  56 S6        30.30R
TWIN FALLS     CLEAR     48  34  58 S8        30.30R
$$

IDZ019>023-270500-
SOUTHEAST IDAHO


CITY           SKY/WX    TMP DP  RH WIND       PRES   REMARKS
IDAHO FALLS    MOCLDY    49  33  54 SW6       30.33R
POCATELLO      CLEAR     45  34  65 S8        30.32S
REXBURG        CLOUDY    51  32  48 S10       30.32R
$$

IDZ006-010-011-018-031-032-270500-
CENTRAL IDAHO MOUNTAINS


CITY           SKY/WX    TMP DP  RH WIND       PRES   REMARKS
MCCALL         CLEAR     45  37  73 N5        30.30R
HAILEY         CLEAR     46  37  71 W3        30.33R
STANLEY          N/A     35  29  78 SE3       30.37R
SALMON         CLEAR    N/A N/A N/A CALM      30.28S
CHALLIS        CLEAR     49  33  54 NW8       30.30R
$$

IDZ002-004-006-007-026-270500-
NORTHERN IDAHO


CITY           SKY/WX    TMP DP  RH WIND       PRES   REMARKS
LEWISTON       CLEAR     59  48  67 SE3       30.19R
LOWELL           N/A     49  47  93 N5        30.27R
COEUR D`ALENE  PTCLDY    48  43  81 CALM      30.22S
MULLAN PASS    PTCLDY    42  35  76 SW6       30.29F
$$



USA.gov is the U.S. government's official web portal to all federal, state and local government web resources and services.